Location: Walnut Street Observatory
(41.0583°N, 76.2295°W)
Time: 09:38:46
(UTC-05:00)

Daily predictions for brighter satellites

Satellite Brightness Start Highest point End
(mag) Time Altitude Azimuth Time Altitude Azimuth Time Altitude Azimuth
IDEFIX/ARIANE 42P 2.9 16:58:45 10° SE 17:03:37 43° ENE 17:08:31 10° N
Genesis I 3.2 17:00:42 10° NNW 17:04:39 83° ENE 17:08:33 10° SE
Thor Agena Rocket 4.0 17:00:07 10° NNE 17:05:07 44° E 17:10:08 10° S
Okean 1 3.6 17:01:14 10° S 17:05:09 51° E 17:09:07 10° NNE
Cosmos 2251 Rocket 4.1 17:01:22 10° NNW 17:06:41 67° WSW 17:11:55 10° S
Cosmos 1238 Rocket 2.1 17:03:55 10° S 17:06:52 84° E 17:10:08 10° N
Timation 2 Rocket 4.4 17:00:23 10° NNW 17:07:02 51° ENE 17:13:42 10° SE
Cosmos 1833 Rocket 3.3 17:02:36 10° N 17:07:45 35° ENE 17:12:51 10° ESE
Cosmos 1346 Rocket 3.3 17:04:54 10° SSE 17:08:31 38° E 17:12:08 10° NNE
Cosmos 1536 Rocket 3.6 17:04:31 10° S 17:08:56 65° E 17:13:23 10° NNE
CZ-2C R/B 4.2 17:10:58 10° N 17:15:23 63° WNW 17:19:51 10° SSW
USA 234 3.4 17:09:47 10° NE 17:16:17 64° SE 17:22:45 10° SW
Cosmos 2082 Rocket 2.4 17:11:39 10° NNW 17:17:09 48° ENE 17:22:37 10° SE
CRYOSAT 2 4.4 17:13:45 10° N 17:18:40 89° E 17:23:33 10° S
YAOGAN 1 2.7 17:14:59 10° SSE 17:19:10 51° ENE 17:23:23 10° N
PAYLOAD A 4.0 17:15:43 10° SSE 17:20:35 86° W 17:25:41 10° NNW
Cosmos 1500 3.2 17:20:51 10° N 17:24:41 63° E 17:28:30 10° SSE
CZ-2C R/B 2.5 17:21:36 10° SSE 17:26:38 73° ENE 17:31:47 10° N
Timation 1 Rocket 4.5 17:21:18 10° S 17:27:06 57° ESE 17:32:57 10° NNE
Cosmos 1743 3.5 17:23:40 10° NNE 17:27:09 31° ENE 17:30:36 10° SE
Nadezhda 3 Rocket 4.1 17:23:27 10° SSE 17:29:27 54° E 17:35:33 10° NNE
NOSS 3-4 (A) 4.2 17:23:17 10° NNW 17:29:50 41° NE 17:36:44 10° ESE
NOSS 3-4 (C) 4.2 17:23:24 10° NNW 17:29:56 41° NE 17:36:49 10° ESE
Cosmos 1455 Rocket 4.1 17:31:29 10° NNW 17:35:46 50° W 17:40:03 10° SSW
Delta 2 Rocket 4.2 17:38:12 10° WSW 17:41:29 35° S 17:44:48 12° ESE
Cosmos 407 Rocket 4.4 17:38:48 10° N 17:42:58 24° ENE 17:47:09 10° ESE
SKYMED 2 4.1 17:39:44 10° NNE 17:43:47 36° E 17:47:47 10° SSE
Cosmos 1484 Rocket 3.1 17:41:40 10° SE 17:45:10 40° ENE 17:48:40 10° N
Cosmos 2056 Rocket 4.1 17:40:29 10° SSE 17:45:21 37° ESE 17:49:18 14° NE
GRACE-2 4.0 17:44:49 10° SSE 17:47:30 47° E 17:49:48 13° NNE
GRACE-1 4.0 17:45:14 10° SSE 17:47:55 49° E 17:50:17 13° NNE
Cosmos 1809 Rocket 4.5 17:43:37 10° N 17:49:47 89° W 17:55:53 10° S
SMAP 3.5 17:46:42 10° S 17:51:18 66° W 17:55:57 10° NNW
Cosmos 2369 Rocket 3.7 17:51:45 10° SE 17:54:58 16° E 17:54:58 16° E
CORIOLIS 4.4 17:49:57 10° S 17:55:20 73° WSW 18:00:44 10° NNW
Meteor 2-9 Rocket 4.4 17:50:28 10° N 17:55:35 41° ENE 18:00:36 10° SE
Okean 2 4.3 17:52:39 10° SSE 17:56:12 28° E 17:57:07 25° ENE
Cosmos 1975 4.3 17:53:10 10° NNW 17:56:58 40° W 18:00:43 10° SSW
SL-24 DEB 4.3 17:52:21 10° N 17:57:05 82° W 18:01:45 10° S
Cosmos 1892 Rocket 4.4 17:54:08 10° SSE 17:57:48 27° E 17:58:40 25° ENE
Cosmos 1624 Rocket 4.1 17:53:07 10° S 17:58:07 51° ESE 18:02:04 16° NNE
Meteor 1-23 Rocket 4.4 17:56:30 10° SSE 18:01:56 48° E 18:07:19 10° NNE
Meteor 1-13 Rocket 4.3 17:57:10 10° S 18:02:53 84° W 18:08:46 10° N
Meteor 2-4 Rocket 3.6 17:58:09 10° S 18:03:22 56° E 18:08:36 10° NNE
Okean 1-7 Rocket 3.6 17:59:19 10° S 18:03:49 88° W 18:08:18 10° N
Cosmos 1726 Rocket 4.1 17:59:56 10° N 18:04:03 35° ENE 18:08:08 10° SE
Cosmos 1371 Rocket 4.0 17:58:45 10° S 18:04:05 74° ESE 18:08:53 13° NNE
CZ-4 R/B 3.5 18:03:42 10° SSW 18:07:22 30° W 18:11:01 10° NW
Tiangong 1 1.0 18:05:54 10° W 18:08:55 60° N 18:09:19 53° NE
ISS -1.0 18:09:15 10° NNW 18:10:48 13° N 18:10:48 13° N
MSX 4.1 18:06:22 10° S 18:12:06 70° WSW 18:17:51 10° NNW
Cosmos 1934 Rocket 4.0 18:06:23 10° N 18:12:33 61° E 18:18:46 10° SSE
NOSS 7 (H) 4.3 18:12:34 10° SSW 18:15:52 60° ESE 18:16:13 56° E
Cosmos 1340 3.9 18:16:51 10° SSE 18:18:56 26° SE 18:18:56 26° SE
Cosmos 1535 Rocket 4.5 18:16:30 10° N 18:22:49 89° W 18:29:00 10° S
Cosmos 1606 Rocket 3.5 18:19:11 10° N 18:23:39 70° E 18:28:07 10° SSE
METEOR-M 4.2 18:22:02 10° SE 18:27:11 52° ENE 18:32:22 10° N
COSMO-SKYMED 1 2.9 18:28:03 13° N 18:31:54 64° WNW 18:36:11 10° SSW
Cosmos 1452 Rocket 3.9 18:29:19 10° S 18:33:52 41° ESE 18:33:52 41° ESE
Cosmos 1190 Rocket 3.8 18:29:48 10° NNW 18:35:04 82° ENE 18:40:17 10° SSE
Cosmos 2278 Rocket 4.5 18:32:13 10° W 18:36:04 18° NW 18:39:57 10° N
GEOS 3 Rocket 3.8 18:36:11 46° NE 18:36:23 47° NE 18:41:17 10° NNW
Cosmos 1025 Rocket 3.7 18:34:28 10° SSW 18:38:47 56° W 18:42:27 14° N
Cosmos 1666 3.1 18:35:04 10° NNW 18:38:54 62° W 18:42:44 10° S
Cosmos 1821 Rocket 4.5 18:41:12 10° NNW 18:47:10 58° W 18:53:07 10° S
Cosmos 1153 Rocket 4.4 18:44:40 10° N 18:50:45 57° E 18:56:45 10° SSE
Cosmos 1833 Rocket 4.3 18:46:36 10° NW 18:51:36 33° WSW 18:56:34 10° SSW
Cosmos 1605 Rocket 3.9 18:51:45 10° N 18:58:03 86° W 19:04:14 10° S
USA 234 4.0 18:56:14 28° NNE 18:59:06 43° NNW 19:05:11 10° W
CZ-3B DEB 4.1 18:55:24 10° WNW 19:00:42 35° N 19:04:31 28° NE
Cosmos 2082 Rocket 4.5 18:56:26 10° NW 19:00:52 24° WSW 19:05:18 10° SSW
BREEZE M DEB (TANK) 4.0 19:09:24 10° W 19:13:17 29° WNW 19:13:17 29° WNW
BREEZE M DEB (TANK) 4.1 19:26:11 10° WNW 19:30:59 79° SSW 19:34:22 47° SE
Cosmos 2369 Rocket 3.0 19:32:52 10° SSW 19:36:50 45° SW 19:36:50 45° SW
FALCON 9 R/B 3.4 19:33:26 10° W 19:48:56 51° SSW 19:49:07 51° SSW
ATLAS 3B CENTAUR R/B 4.4 19:45:33 10° W 19:58:14 29° SSW 20:00:27 26° S
